sat.trackr.live / text

‹ back to catalog

STARLINK-30103

NORAD 56290 · 2023-056E

PAYLOAD ACTIVE UNKNOWN

§ Identity

Operator
Country
US
Launch date
2023-04-19
Launch site
AFETR
Launch vehicle
Mass (kg)
RCS (m²)

Purposes: comms

External: N2YO · Heavens-Above · Gunter

§ Orbital elements

Epoch: 2026-09-20T04:11:50.273952Z

Period
94.27 min
Inclination
42.9983°
Eccentricity
0.0000446
Mean motion
15.27587841 rev/d
Perigee alt
482.7 km
Apogee alt
483.3 km
Semi-major
6,861.2 km
B*
1.1071e-4
RAAN
190.5997°
Arg perigee
165.7046°
Mean anomaly
194.3819°
Rev number
18,978

§ Raw data

STARLINK-301031 56290U 23056E   26263.17488743  .00002787  00000+0  11071-3 0  99952 56290  42.9983 190.5997 0000446 165.7046 194.3819 15.27587841189788

JSON: /api/v1/satellites/56290 · /tle

For live sub-satellite position, see the globe view (requires WebGL).

§ Visibility from observer

Set your observer location to see the next 7 days of passes ≥ 10°. The values pass through the URL so the page stays shareable.

No JS? Fill the form by hand. The geolocation button needs JavaScript.